TimeCDT,TemperatureF,Dew PointF,Humidity,Sea Level PressureIn,VisibilityMPH,Wind Direction,Wind SpeedMPH,Gust SpeedMPH,PrecipitationIn,Events,Conditions,WindDirDegrees,DateUTC
12:15 AM,35.6,28.4,75,29.99,10.0,Calm,Calm,-,N/A,,Clear,0,2012-11-01 05:15:00
12:35 AM,37.4,26.6,65,29.99,10.0,WSW,3.5,-,N/A,,Clear,250,2012-11-01 05:35:00
12:55 AM,37.4,26.6,65,29.99,10.0,West,3.5,-,N/A,,Clear,260,2012-11-01 05:55:00
1:15 AM,39.2,26.6,61,29.99,10.0,WSW,3.5,-,N/A,,Clear,250,2012-11-01 06:15:00
1:35 AM,37.4,26.6,65,29.99,10.0,WSW,3.5,-,N/A,,Clear,250,2012-11-01 06:35:00
1:55 AM,37.4,26.6,65,29.99,10.0,WSW,3.5,-,N/A,,Clear,250,2012-11-01 06:55:00
2:15 AM,37.4,26.6,65,29.99,10.0,WSW,3.5,-,N/A,,Clear,250,2012-11-01 07:15:00
2:35 AM,37.4,24.8,60,29.99,10.0,West,3.5,-,N/A,,Clear,260,2012-11-01 07:35:00
2:55 AM,37.4,24.8,60,29.99,10.0,West,3.5,-,N/A,,Clear,260,2012-11-01 07:55:00
3:15 AM,37.4,24.8,60,29.99,10.0,West,3.5,-,N/A,,Clear,280,2012-11-01 08:15:00
3:35 AM,37.4,24.8,60,29.98,10.0,WSW,3.5,-,N/A,,Clear,250,2012-11-01 08:35:00
3:55 AM,37.4,24.8,60,29.99,10.0,West,3.5,-,N/A,,Clear,270,2012-11-01 08:55:00
4:15 AM,37.4,24.8,60,29.99,10.0,West,3.5,-,N/A,,Clear,280,2012-11-01 09:15:00
4:35 AM,37.4,23.0,56,30.00,10.0,Calm,Calm,-,N/A,,Clear,0,2012-11-01 09:35:00
4:55 AM,35.6,26.6,70,30.00,10.0,West,3.5,-,N/A,,Clear,260,2012-11-01 09:55:00
5:15 AM,35.6,26.6,70,30.00,10.0,Calm,Calm,-,N/A,,Clear,0,2012-11-01 10:15:00
5:35 AM,37.4,23.0,56,30.01,10.0,West,3.5,-,N/A,,Clear,270,2012-11-01 10:35:00
5:55 AM,37.4,26.6,65,30.00,10.0,West,3.5,-,N/A,,Clear,260,2012-11-01 10:55:00
6:15 AM,35.6,24.8,65,29.99,10.0,Calm,Calm,-,N/A,,Clear,0,2012-11-01 11:15:00
6:35 AM,35.6,26.6,70,30.01,10.0,Calm,Calm,-,N/A,,Clear,0,2012-11-01 11:35:00
6:53 AM,37.4,24.8,60,30.01,15.0,West,5.8,-,N/A,,Scattered Clouds,280,2012-11-01 11:53:00
7:54 AM,37.4,24.8,60,30.02,20.0,Calm,Calm,-,N/A,,Mostly Cloudy,0,2012-11-01 12:54:00
8:55 AM,42.8,28.4,57,30.04,20.0,WNW,5.8,-,N/A,,Mostly Cloudy,300,2012-11-01 13:55:00
9:54 AM,48.2,26.6,43,30.04,20.0,WNW,6.9,-,N/A,,Partly Cloudy,300,2012-11-01 14:54:00
10:51 AM,53.6,39.2,58,30.04,20.0,NW,6.9,-,N/A,,Partly Cloudy,310,2012-11-01 15:51:00
11:58 AM,55.4,24.8,31,30.03,20.0,West,8.1,-,N/A,,Mostly Cloudy,280,2012-11-01 16:58:00
12:55 PM,59.0,28.4,31,30.01,20.0,WNW,5.8,-,N/A,,Mostly Cloudy,290,2012-11-01 17:55:00
1:55 PM,60.8,28.4,29,29.98,20.0,NW,11.5,-,N/A,,Mostly Cloudy,310,2012-11-01 18:55:00
3:55 PM,62.6,30.2,30,29.95,20.0,West,5.8,-,N/A,,Mostly Cloudy,280,2012-11-01 20:55:00
4:55 PM,60.8,37.4,42,29.93,20.0,SSW,5.8,-,N/A,,Overcast,200,2012-11-01 21:55:00
5:55 PM,59.0,35.6,42,29.92,20.0,SSW,5.8,-,N/A,,Overcast,200,2012-11-01 22:55:00
6:55 PM,55.4,35.6,47,29.92,10.0,SSW,6.9,-,N/A,,Overcast,200,2012-11-01 23:55:00
7:15 PM,55.4,35.6,47,29.92,10.0,SSW,5.8,-,N/A,,Overcast,200,2012-11-02 00:15:00
7:35 PM,53.6,37.4,54,29.91,10.0,South,5.8,-,N/A,,Overcast,190,2012-11-02 00:35:00
7:55 PM,53.6,37.4,54,29.91,10.0,SSW,5.8,-,N/A,,Overcast,200,2012-11-02 00:55:00
8:15 PM,53.6,37.4,54,29.92,10.0,SSW,4.6,-,N/A,,Overcast,210,2012-11-02 01:15:00
8:35 PM,53.6,35.6,51,29.92,10.0,SSW,4.6,-,N/A,,Scattered Clouds,210,2012-11-02 01:35:00
8:55 PM,51.8,35.6,54,29.92,10.0,SSW,3.5,-,N/A,,Scattered Clouds,200,2012-11-02 01:55:00
9:15 PM,51.8,35.6,54,29.92,10.0,South,3.5,-,N/A,,Scattered Clouds,190,2012-11-02 02:15:00
9:35 PM,50.0,35.6,58,29.93,10.0,SSW,4.6,-,N/A,,Clear,200,2012-11-02 02:35:00
9:55 PM,51.8,35.6,54,29.92,10.0,South,4.6,-,N/A,,Clear,180,2012-11-02 02:55:00
10:15 PM,50.0,35.6,58,29.92,10.0,South,4.6,-,N/A,,Clear,180,2012-11-02 03:15:00
10:35 PM,50.0,35.6,58,29.91,10.0,South,4.6,-,N/A,,Clear,190,2012-11-02 03:35:00
10:55 PM,50.0,35.6,58,29.91,10.0,SSW,5.8,-,N/A,,Clear,200,2012-11-02 03:55:00
11:15 PM,50.0,35.6,58,29.91,10.0,SSW,4.6,-,N/A,,Clear,210,2012-11-02 04:15:00
11:35 PM,48.2,35.6,62,29.90,10.0,SSW,4.6,-,N/A,,Clear,200,2012-11-02 04:35:00
11:55 PM,48.2,37.4,66,29.89,10.0,SSW,4.6,-,N/A,,Clear,210,2012-11-02 04:55:00